Location: Härggis
(46.9540°N, 8.4897°E)
Time: 02:10:45
(UTC+00:00)

Cosmos 407 Rocket - Pass Details

Date: 27 May 2022
Orbit: 743 x 786 km, 74.0° (Epoch: 26 June)

Event Time Altitude Azimuth Distance (km) Brightness Sun altitude
Rises 02:06:46 0° 339° (NNW) 3,283 7.2 -12.5°
Reaches altitude 10° 02:09:11 10° 341° (NNW) 2,346 6.5 -12.2°
Maximum altitude 02:14:31 73° 67° (ENE) 816 3.8 -11.6°
Drops below altitude 10° 02:19:45 10° 152° (SSE) 2,305 5.8 -11.0°
Sets 02:22:07 0° 154° (SSE) 3,221 6.5 -10.8°
